Latest Coastal Weather Observations for Kennaook / Cape Grim

IDT60701

Issued at 7:32 pm EST Wednesday 6 May 2026 (issued every 10 minutes, with the page automatically refreshed every 10 minutes)

About coastal observations | Map of coastal stations | Coastal observations for TAS | Marine services | Other Formats
Station Details ID: 091331 Name: KENNAOOK/CAPE GRIM Lat: -40.68 Lon: 144.69 Height: 86.0 m
Data from the previous 72 hours. | See also: Recent months at Kennaook / Cape Grim
Date/Time
EST
Wind Sea
Height
m
Swell Vis
km
Cloud Weather Temp
°C
Press
MSL
hPa
Rain since
9am
mm
Dir  Spd
kts
Gust
kts
Height
m
Period
s
Dir
06/07:30pm SW 23 34 - - - - - Mostly clear - 10.4 1010.8 8.4
06/07:00pm WSW 21 40 - - - - - Partly cloudy - 10.7 1010.5 8.4
06/06:30pm WSW 24 38 - - - - - Partly cloudy - 10.6 1010.7 8.4
06/06:16pm WSW 22 45 - - - - - Partly cloudy - 10.9 1010.5 8.4
06/06:01pm WSW 20 46 - - - - - Partly cloudy - 10.8 1010.3 8.2
06/06:00pm WSW 18 31 - - - - - Cloudy Recent precip. 11.0 1010.4 8.2
06/05:30pm SW 24 37 - - - - - Mostly clear - 10.3 1010.1 7.8
06/05:00pm WSW 22 36 - - - - - Partly cloudy - 10.3 1010.2 7.2
06/04:30pm WSW 20 32 - - - - - Partly cloudy - 10.5 1010.2 6.2
06/04:26pm WSW 21 35 - - - - - Partly cloudy - 10.3 1010.2 6.0
06/04:14pm WSW 20 36 - - - - - Mostly clear - 10.5 1010.1 5.4
06/04:02pm SW 21 32 - - - - - Mostly clear - 10.9 1010.0 4.6
06/04:00pm SW 21 32 - - - - - Partly cloudy - 10.8 1010.0 4.6
06/03:35pm SW 23 35 - - - - - Partly cloudy - 10.8 1010.1 4.4
06/03:32pm SW 21 33 - - - - - Partly cloudy - 11.3 1010.1 4.0
06/03:30pm SW 21 28 - - - - - Partly cloudy - 11.1 1010.1 4.0
06/03:14pm SW 24 30 - - - - - Partly cloudy - 11.1 1010.2 3.4
06/03:00pm SW 26 36 - - - - - Cloudy Rain 10.9 1010.0 3.4
06/02:57pm SW 26 36 - - - - - Partly cloudy - 11.2 1010.0 3.4
06/02:30pm WSW 18 30 - - - - - Partly cloudy - 12.0 1009.9 2.4
06/02:24pm W 20 30 - - - - - Partly cloudy - 12.3 1009.8 0.8
06/02:23pm W 20 29 - - - - - Partly cloudy - 12.4 1009.8 0.8
06/02:13pm WNW 23 33 - - - - - Mostly clear - 13.4 1010.2 0.8
06/02:00pm WNW 25 31 - - - - - Partly cloudy - 14.6 1010.2 0.8
06/01:30pm WNW 23 30 - - - - - Partly cloudy - 15.6 1010.9 0.8
06/01:00pm WNW 23 30 - - - - - Partly cloudy - 15.4 1011.5 0.8
06/12:30pm WNW 25 32 - - - - - Mostly clear - 15.1 1012.0 0.8
06/12:00pm WNW 24 30 - - - - - Mostly cloudy - 14.9 1012.7 0.8
06/11:32am WNW 25 35 - - - - - Partly cloudy - 14.3 1012.9 0.8
06/11:30am WNW 24 31 - - - - - Partly cloudy - 14.5 1013.0 0.8
06/11:00am WNW 22 31 - - - - - Partly cloudy - 15.0 1013.4 0.8
06/10:30am W 24 31 - - - - - Partly cloudy - 13.5 1013.9 0.8
06/10:00am WNW 21 28 - - - - - Mostly clear - 13.8 1014.2 0.8
06/09:59am WNW 21 28 - - - - - Mostly clear - 13.7 1014.2 0.8
06/09:40am W 20 30 - - - - - Mostly clear - 13.4 1014.5 0.8
06/09:30am W 19 27 - - - - - Mostly clear - 13.7 1014.6 0.8
06/09:08am WNW 20 31 - - - - - Partly cloudy - 13.9 1014.7 0.0
06/09:00am WNW 19 24 - - - - - Cloudy Recent precip. 13.9 1014.7 1.6
06/08:40am WNW 22 28 - - - - - Partly cloudy - 13.6 1014.9 1.6
06/08:30am WNW 22 29 - - - - - Mostly clear - 13.8 1014.9 1.6
06/08:00am WNW 21 26 - - - - - Mostly clear - 14.2 1015.0 1.2
06/07:37am WNW 23 34 - - - - - Mostly clear - 14.0 1015.0 1.2
06/07:30am WNW 22 29 - - - - - Mostly clear - 13.7 1015.1 1.2
06/07:00am WNW 19 30 - - - - - Partly cloudy - 14.2 1015.1 1.2
06/06:30am WNW 21 27 - - - - - Mostly clear - 14.0 1015.5 1.2
06/06:00am WNW 23 28 - - - - - Partly cloudy - 13.7 1015.7 1.2
06/05:47am WNW 23 29 - - - - - Mostly clear - 13.0 1015.7 1.2
06/05:37am WNW 23 28 - - - - - Mostly clear - 13.6 1015.8 1.2
06/05:30am WNW 22 27 - - - - - Mostly clear - 13.3 1015.8 1.2
06/05:09am WNW 23 34 - - - - - Partly cloudy - 14.2 1015.7 1.2
06/05:00am WNW 22 29 - - - - - Partly cloudy - 14.3 1015.8 1.2
06/04:30am WNW 22 30 - - - - - Partly cloudy - 14.0 1015.9 1.2
06/04:00am WNW 22 27 - - - - - Partly cloudy - 14.4 1016.1 1.2
06/03:30am NW 20 29 - - - - - Mostly clear - 14.3 1016.3 1.2
06/03:00am WNW 21 27 - - - - - Partly cloudy - 14.2 1016.5 1.2
06/02:30am WNW 21 26 - - - - - Mostly clear - 14.2 1017.0 1.2
06/02:00am WNW 20 25 - - - - - Partly cloudy - 14.1 1017.2 1.2
06/01:30am WNW 21 29 - - - - - Partly cloudy - 13.5 1017.5 1.2
06/01:20am WNW 24 34 - - - - - Mostly clear - 13.3 1017.6 1.2
06/01:00am WNW 20 26 - - - - - Mostly clear - 13.7 1017.8 1.0
06/12:30am WNW 20 26 - - - - - Mostly clear - 13.8 1018.0 1.0
06/12:13am WNW 22 28 - - - - - Partly cloudy - 13.7 1017.9 1.0
06/12:00am WNW 21 29 - - - - - Cloudy Recent precip. 13.5 1017.9 1.0
 
Date/Time
EST
Wind Sea
Height
m
Swell Vis
km
Cloud Weather Temp
°C
Press
MSL
hPa
Rain since
9am
mm
Dir  Spd
kts
Gust
kts
Height
m
Period
s
Dir
05/11:54pm WNW 19 24 - - - - - Partly cloudy - 13.9 1018.0 1.0
05/11:30pm WNW 20 27 - - - - - Mostly clear - 13.5 1018.2 1.0
05/11:00pm WNW 18 27 - - - - - Partly cloudy - 13.3 1018.4 0.8
05/10:57pm WNW 17 27 - - - - - Mostly clear - 13.4 1018.5 0.6
05/10:30pm WNW 19 25 - - - - - Mostly clear - 13.6 1018.7 0.6
05/10:00pm WNW 17 23 - - - - - Mostly clear - 13.8 1018.8 0.6
05/09:30pm WNW 18 24 - - - - - Mostly clear - 13.8 1019.0 0.6
05/09:00pm WNW 17 20 - - - - - Cloudy - 14.0 1018.9 0.6
05/08:30pm WNW 15 20 - - - - - Cloudy - 14.2 1019.0 0.6
05/08:00pm WNW 18 22 - - - - - Mostly clear - 14.1 1019.1 0.6
05/07:30pm WNW 13 17 - - - - - Mostly clear - 14.0 1019.1 0.6
05/07:00pm WNW 14 18 - - - - - Cloudy - 13.9 1019.1 0.6
05/06:30pm W 13 19 - - - - - Partly cloudy - 13.7 1018.7 0.6
05/06:00pm W 14 18 - - - - - - - 13.3 1018.5 0.6
05/05:30pm W 13 18 - - - - - Cloudy - 13.3 1018.2 0.6
05/05:00pm W 13 21 - - - - - Mostly clear - 13.1 1018.1 0.6
05/04:30pm W 13 18 - - - - - Mostly clear - 12.7 1017.9 0.6
05/04:00pm W 14 22 - - - - - Mostly clear - 12.2 1017.8 0.6
05/03:30pm WSW 10 17 - - - - - Mostly clear - 12.5 1017.5 0.6
05/03:00pm W 11 15 - - - - - Cloudy Recent precip. 12.5 1017.4 0.4
05/02:30pm W 15 25 - - - - - Partly cloudy - 12.3 1017.3 0.4
05/02:29pm W 15 25 - - - - - Partly cloudy - 12.4 1017.3 0.4
05/02:00pm SW 14 21 - - - - - Partly cloudy - 13.3 1016.9 0.0
05/01:30pm W 15 24 - - - - - Mostly clear - 13.1 1016.7 0.0
05/01:25pm W 15 25 - - - - - Mostly clear - 13.0 1016.8 0.0
05/01:00pm W 15 22 - - - - - Cloudy - 13.5 1016.7 0.0
05/12:30pm SW 17 27 - - - - - Mostly clear - 13.5 1016.7 0.0
05/12:23pm WSW 15 27 - - - - - Mostly clear - 13.5 1016.7 0.0
05/12:00pm WSW 13 23 - - - - - Mostly cloudy - 13.4 1016.8 0.0
05/11:30am SW 21 31 - - - - - Mostly clear - 13.0 1016.7 0.0
05/11:00am SW 16 26 - - - - - Partly cloudy - 13.4 1016.5 0.0
05/10:40am WSW 15 27 - - - - - Partly cloudy - 12.8 1016.2 0.0
05/10:30am WSW 14 23 - - - - - Partly cloudy - 12.4 1016.2 0.0
05/10:08am SW 15 25 - - - - - Partly cloudy - 12.8 1015.9 0.0
05/10:05am SW 17 25 - - - - - Partly cloudy - 13.0 1015.7 0.0
05/10:00am WSW 15 25 - - - - - Partly cloudy - 12.6 1015.8 0.0
05/09:57am WSW 15 25 - - - - - Partly cloudy - 12.4 1015.7 0.0
05/09:49am WSW 14 24 - - - - - Partly cloudy - 12.7 1015.6 0.0
05/09:40am SW 17 27 - - - - - Mostly clear - 12.8 1015.6 0.0
05/09:30am SW 20 27 - - - - - Mostly clear - 12.6 1015.5 0.0
05/09:00am SW 21 28 - - - - - Cloudy - 12.4 1015.2 4.0
05/08:30am SW 18 33 - - - - - Mostly clear - 12.6 1014.8 4.0
05/08:15am SW 20 31 - - - - - Partly cloudy - 12.6 1014.6 4.0
05/08:14am SW 20 31 - - - - - Partly cloudy - 12.6 1014.5 4.0
05/08:02am SW 20 28 - - - - - Partly cloudy - 12.7 1014.3 4.0
05/08:00am SW 19 28 - - - - - Partly cloudy - 12.7 1014.2 4.0
05/07:48am SW 20 35 - - - - - Partly cloudy - 12.4 1014.0 4.0
05/07:33am SW 17 31 - - - - - Mostly clear - 12.8 1013.6 4.0
05/07:30am SW 19 27 - - - - - Mostly clear - 12.9 1013.5 4.0
05/07:15am SW 24 35 - - - - - Partly cloudy - 12.4 1013.4 3.8
05/07:08am SW 25 35 - - - - - Partly cloudy - 12.6 1013.3 3.8
05/07:00am SW 24 31 - - - - - Partly cloudy - 12.8 1013.2 3.8
05/06:43am SW 22 32 - - - - - Partly cloudy - 12.7 1012.7 3.8
05/06:30am SW 22 30 - - - - - Partly cloudy - 12.9 1012.6 3.8
05/06:25am SW 20 30 - - - - - Partly cloudy - 13.2 1012.4 3.8
05/06:00am SW 19 27 - - - - - Cloudy - 12.9 1012.0 3.6
05/05:30am SW 22 29 - - - - - Partly cloudy - 13.1 1011.7 3.6
05/05:23am SW 21 31 - - - - - Mostly clear - 13.0 1011.5 3.6
05/05:00am SW 24 32 - - - - - Partly cloudy - 12.9 1011.1 3.6
05/04:32am SW 23 33 - - - - - Partly cloudy - 13.3 1010.5 3.4
05/04:30am SW 24 33 - - - - - Partly cloudy - 13.2 1010.5 3.2
05/04:11am SW 25 33 - - - - - Partly cloudy - 13.6 1010.1 3.2
05/04:00am SW 25 32 - - - - - Partly cloudy - 13.4 1009.9 3.2
05/03:36am SW 25 33 - - - - - Partly cloudy - 13.2 1009.6 3.2
05/03:34am SW 25 31 - - - - - Partly cloudy - 13.5 1009.5 3.2
05/03:30am SW 26 31 - - - - - Partly cloudy - 13.4 1009.5 3.2
05/03:20am SW 26 33 - - - - - Mostly clear - 13.1 1009.3 3.2
05/03:19am SW 26 33 - - - - - Mostly clear - 13.1 1009.3 3.2
05/03:00am SW 24 32 - - - - - Cloudy Rain 13.0 1009.0 3.2
05/02:36am SW 24 34 - - - - - Partly cloudy - 13.7 1008.7 1.8
05/02:35am SW 23 34 - - - - - Partly cloudy - 13.9 1008.6 1.8
05/02:30am SW 24 29 - - - - - Partly cloudy - 14.0 1008.6 1.8
05/02:03am SW 22 28 - - - - - Partly cloudy - 13.8 1008.2 1.8
05/02:00am SW 21 28 - - - - - Partly cloudy - 13.5 1008.2 1.8
05/01:35am SW 19 24 - - - - - Partly cloudy - 14.0 1007.9 1.6
05/01:30am SW 19 24 - - - - - Partly cloudy - 13.8 1007.8 1.6
05/01:00am SW 12 17 - - - - - Mostly clear - 13.6 1007.4 1.6
05/12:30am SSW 13 17 - - - - - Partly cloudy - 13.2 1007.0 1.6
05/12:23am SSW 13 17 - - - - - Mostly clear - 13.2 1006.9 1.6
05/12:00am SSW 9 13 - - - - - Mostly cloudy Recent precip. 13.1 1006.6 1.6
 
Date/Time
EST
Wind Sea
Height
m
Swell Vis
km
Cloud Weather Temp
°C
Press
MSL
hPa
Rain since
9am
mm
Dir  Spd
kts
Gust
kts
Height
m
Period
s
Dir
04/11:30pm S 8 11 - - - - - Partly cloudy - 13.1 1006.1 1.6
04/11:05pm SE 8 10 - - - - - Partly cloudy - 13.2 1006.0 1.4
04/11:00pm SE 8 10 - - - - - Cloudy - 13.2 1006.0 1.4
04/10:30pm ESE 5 7 - - - - - Partly cloudy - 13.6 1005.8 1.4
04/10:16pm ENE 8 10 - - - - - Partly cloudy - 13.7 1005.7 1.2
04/10:00pm ENE 7 9 - - - - - Mostly clear - 13.5 1005.4 1.2
04/09:30pm NE 8 9 - - - - - Mostly clear - 13.0 1005.4 1.0
04/09:00pm ENE 8 9 - - - - - Cloudy Recent precip. 12.7 1005.2 1.0
04/08:30pm NE 9 11 - - - - - Partly cloudy - 13.3 1005.1 0.6
04/08:00pm NNE 10 13 - - - - - Partly cloudy - 13.8 1005.2 0.6
04/07:30pm NNE 15 25 - - - - - Partly cloudy - 13.5 1005.4 0.4
04/07:28pm NNE 14 25 - - - - - Partly cloudy - 13.7 1005.4 0.4
04/07:00pm NE 11 13 - - - - - Partly cloudy - 13.1 1005.4 0.4
04/06:33pm N 19 30 - - - - - Mostly clear - 13.6 1005.5 0.2
04/06:30pm N 22 30 - - - - - Mostly clear - 13.5 1005.5 0.2
04/06:21pm NNE 18 28 - - - - - Partly cloudy - 15.1 1005.2 0.2
04/06:00pm NNE 15 18 - - - - - Cloudy - 15.0 1005.2 0.2
04/05:30pm NNE 14 17 - - - - - Mostly clear - 14.6 1005.3 0.2
04/05:00pm N 17 21 - - - - - Cloudy - 14.6 1005.4 0.2
04/04:30pm N 16 21 - - - - - Partly cloudy - 15.1 1005.4 0.2
04/04:00pm N 16 21 - - - - - Cloudy - 15.1 1005.5 0.2
04/03:30pm N 19 24 - - - - - Mostly clear - 14.9 1005.7 0.2
04/03:00pm N 20 24 - - - - - Cloudy - 14.7 1005.8 0.2
04/02:30pm N 21 26 - - - - - Partly cloudy - 14.7 1005.9 0.2
04/02:00pm N 19 25 - - - - - Mostly clear - 14.3 1006.2 0.2
04/01:30pm N 19 25 - - - - - Mostly clear - 13.7 1006.5 0.2
04/01:07pm N 22 32 - - - - - Mostly clear - 14.2 1006.6 0.2
04/01:00pm N 21 27 - - - - - Mostly clear - 14.9 1006.7 0.2
04/12:30pm N 21 26 - - - - - Mostly clear - 16.3 1006.9 0.2
04/12:00pm N 20 27 - - - - - Cloudy - 16.1 1007.4 0.2
04/11:30am N 20 25 - - - - - - - 16.6 1007.8 0.2
04/11:00am N 21 27 - - - - - Mostly clear - 16.6 1007.9 0.2
04/10:30am N 22 27 - - - - - - - 15.9 1007.7 0.2
04/10:00am N 20 26 - - - - - Mostly clear - 15.9 1007.7 0.0
04/09:30am N 19 24 - - - - - Mostly clear - 15.2 1008.0 0.0
04/09:00am N 19 25 - - - - - - - 15.5 1008.0 11.4
04/08:30am N 17 21 - - - - - - - 15.0 1008.1 11.4
04/08:00am N 17 22 - - - - - Mostly clear - 14.7 1008.1 11.4
04/07:30am N 17 22 - - - - - - - 14.4 1007.9 11.4
04/07:00am N 17 21 - - - - - - - 14.3 1007.8 11.4
04/06:30am N 16 19 - - - - - - - 14.3 1007.9 11.4
04/06:00am N 16 20 - - - - - Mostly clear - 14.3 1008.0 11.4
04/05:30am N 16 21 - - - - - - - 14.4 1008.3 11.4
04/05:00am N 16 20 - - - - - - - 14.6 1008.2 11.4
04/04:30am N 16 19 - - - - - - - 14.6 1008.3 11.4
04/04:00am N 15 18 - - - - - - - 14.6 1008.4 11.4
04/03:30am N 15 19 - - - - - - - 14.8 1008.5 11.4
04/03:00am N 14 18 - - - - - - - 14.7 1008.9 11.4
04/02:30am N 13 16 - - - - - - - 14.9 1009.1 11.4
04/02:00am NNW 13 17 - - - - - - - 15.2 1009.3 11.4
04/01:30am N 15 21 - - - - - - - 15.2 1009.4 11.4
04/01:00am N 12 16 - - - - - Partly cloudy - 14.7 1009.4 11.4
04/12:30am N 13 16 - - - - - - - 14.4 1009.5 11.4
04/12:00am N 13 17 - - - - - Mostly clear - 14.0 1009.5 11.4
 
Date/Time
EST
Wind Sea
Height
m
Swell Vis
km
Cloud Weather Temp
°C
Press
MSL
hPa
Rain since
9am
mm
Dir  Spd
kts
Gust
kts
Height
m
Period
s
Dir
03/11:30pm NE 11 14 - - - - - Mostly clear - 13.3 1009.6 11.4
03/11:00pm NE 10 12 - - - - - Partly cloudy - 13.0 1009.9 11.4
03/10:30pm NE 10 12 - - - - - - - 12.7 1010.2 11.4
03/10:00pm NE 10 12 - - - - - - - 12.5 1010.5 11.4
03/09:30pm NE 11 12 - - - - - - - 12.5 1010.4 11.4
03/09:00pm NNE 10 11 - - - - - - - 12.5 1010.6 11.4
03/08:30pm ENE 7 8 - - - - - - - 12.4 1010.4 11.4
03/08:00pm NE 6 7 - - - - - - - 12.7 1010.2 11.4

Other formats

Comma delimited format used in spreadsheet applications
http://www.bom.gov.au/fwo/IDT60701/IDT60701.95954.axf

JavaScript Object Notation format (JSON) in row-major order
http://www.bom.gov.au/fwo/IDT60701/IDT60701.95954.json

Data quality

Most of these data are generated automatically and are frequently updated. Quality checks on data are not normally performed. It is possible for incorrect values to appear. Refer to information at About Latest Weather Observations and please check the disclaimer before using these data.